timestamp,wind_dir_avg,wind_spd_avg,wind_spd_max_dir,wind_spd_gust,battery_voltage,lat,long
2023-05-12 00:04:00+00:00,261.0,7.99,261.0,13.04,12.81,47.59359,-54.27349
2023-05-12 00:14:00+00:00,262.0,10.77,267.0,14.58,12.41,47.59359,-54.27349
2023-05-12 00:24:00+00:00,225.0,4.92,239.0,7.49,12.41,47.59359,-54.27349
2023-05-12 00:34:00+00:00,244.0,4.66,247.0,6.28,12.41,47.59359,-54.27349
2023-05-12 00:44:00+00:00,163.0,3.95,120.0,7.19,12.41,47.59359,-54.27349
2023-05-12 00:54:00+00:00,249.0,4.32,265.0,6.65,12.41,47.59359,-54.27349
2023-05-12 01:04:00+00:00,206.0,3.47,243.0,6.25,12.41,47.59359,-54.27349
2023-05-12 01:14:00+00:00,139.0,3.47,121.0,6.49,12.33,47.59359,-54.27349
2023-05-12 01:24:00+00:00,185.0,5.9,180.0,6.77,12.33,47.59359,-54.27349
2023-05-12 01:34:00+00:00,183.0,5.71,180.0,6.54,12.33,47.59359,-54.27349
2023-05-12 01:44:00+00:00,226.0,5.36,212.0,6.54,12.33,47.59359,-54.27349
2023-05-12 01:54:00+00:00,244.0,4.02,253.0,6.24,12.33,47.59359,-54.27349
2023-05-12 02:04:00+00:00,267.0,5.74,270.0,6.84,12.33,47.59359,-54.27349
2023-05-12 02:14:00+00:00,263.0,5.87,265.0,6.16,12.33,47.59359,-54.27349
2023-05-12 02:24:00+00:00,249.0,5.65,246.0,6.72,12.33,47.59359,-54.27349
2023-05-12 02:34:00+00:00,262.0,5.81,267.0,6.86,12.33,47.59359,-54.27349
2023-05-12 02:44:00+00:00,265.0,4.62,266.0,5.6,12.33,47.59359,-54.27349
2023-05-12 02:54:00+00:00,196.0,2.11,199.0,2.6,12.33,47.59359,-54.27349
2023-05-12 03:04:00+00:00,221.0,2.39,237.0,3.81,12.33,47.59359,-54.27349
2023-05-12 03:14:00+00:00,177.0,1.05,179.0,1.27,12.33,47.59359,-54.27349
2023-05-12 03:24:00+00:00,101.0,0.15,132.0,0.25,12.33,47.59359,-54.27349
2023-05-12 03:34:00+00:00,67.0,0.52,54.0,0.79,12.33,47.59359,-54.27349
2023-05-12 03:44:00+00:00,57.0,1.24,58.0,1.4,12.33,47.59359,-54.27349
2023-05-12 03:54:00+00:00,27.0,1.29,13.0,1.64,12.33,47.59359,-54.27349
2023-05-12 04:04:00+00:00,9.0,1.9,13.0,2.28,12.33,47.59359,-54.27349
2023-05-12 04:14:00+00:00,334.0,2.03,334.0,2.36,12.25,47.59359,-54.27349
2023-05-12 04:24:00+00:00,350.0,1.78,355.0,1.87,12.25,47.59359,-54.27349
2023-05-12 04:34:00+00:00,329.0,0.99,328.0,1.1,12.25,47.59359,-54.27349
2023-05-12 04:44:00+00:00,323.0,0.98,323.0,1.29,12.25,47.59359,-54.27349
2023-05-12 04:54:00+00:00,273.0,1.99,281.0,2.54,12.25,47.59359,-54.27349
2023-05-12 05:04:00+00:00,314.0,1.55,311.0,1.72,12.25,47.59359,-54.27349
2023-05-12 05:14:00+00:00,325.0,0.64,327.0,0.71,12.25,47.59359,-54.27349
2023-05-12 05:24:00+00:00,294.0,1.32,295.0,1.51,12.25,47.59359,-54.27349
2023-05-12 05:34:00+00:00,286.0,1.3,287.0,1.73,12.25,47.59359,-54.27349
2023-05-12 05:44:00+00:00,286.0,1.38,291.0,1.82,12.25,47.59359,-54.27349
2023-05-12 05:54:00+00:00,285.0,0.55,308.0,1.09,12.25,47.59359,-54.27349
2023-05-12 06:04:00+00:00,306.0,1.77,301.0,2.2,12.25,47.59359,-54.27349
2023-05-12 06:14:01+00:00,313.0,1.42,314.0,1.71,12.17,47.59359,-54.27349
2023-05-12 06:24:01+00:00,283.0,1.41,283.0,1.63,12.17,47.59359,-54.27349
2023-05-12 06:34:01+00:00,303.0,1.02,309.0,1.17,12.17,47.59359,-54.27349
2023-05-12 06:44:01+00:00,331.0,0.85,328.0,0.95,12.17,47.59359,-54.27349
2023-05-12 06:54:01+00:00,29.0,1.11,33.0,1.26,12.17,47.59359,-54.27349
2023-05-12 07:04:01+00:00,338.0,0.79,341.0,0.99,12.17,47.59359,-54.27349
2023-05-12 07:14:00+00:00,331.0,1.52,324.0,1.88,12.17,47.59359,-54.27349
2023-05-12 07:24:00+00:00,329.0,2.86,327.0,3.23,12.17,47.59359,-54.27349
2023-05-12 07:34:00+00:00,332.0,2.69,336.0,2.91,12.17,47.59359,-54.27349
2023-05-12 07:44:00+00:00,348.0,2.08,348.0,2.37,12.17,47.59359,-54.27349
2023-05-12 07:54:00+00:00,3.0,2.27,1.0,2.63,12.17,47.59359,-54.27349
2023-05-12 08:04:00+00:00,353.0,1.93,355.0,2.08,12.17,47.59359,-54.27349
2023-05-12 08:14:01+00:00,350.0,1.99,352.0,2.28,12.09,47.59359,-54.27349
2023-05-12 08:24:01+00:00,350.0,2.1,349.0,2.42,12.09,47.59359,-54.27349
2023-05-12 08:34:01+00:00,346.0,2.35,348.0,2.56,12.09,47.59359,-54.27349
2023-05-12 08:44:01+00:00,340.0,1.9,340.0,2.06,12.09,47.59359,-54.27349
2023-05-12 08:54:01+00:00,332.0,1.49,339.0,1.68,12.09,47.59359,-54.27349
2023-05-12 09:04:01+00:00,7.0,2.46,11.0,2.67,12.09,47.59359,-54.27349
2023-05-12 09:14:00+00:00,15.0,3.2,15.0,3.6,12.57,47.59359,-54.27349
2023-05-12 09:24:00+00:00,21.0,3.05,21.0,3.31,12.57,47.59359,-54.27349
2023-05-12 09:34:00+00:00,38.0,2.88,43.0,3.15,12.57,47.59359,-54.27349
2023-05-12 09:44:00+00:00,29.0,2.32,34.0,2.59,12.57,47.59359,-54.27349
2023-05-12 09:54:00+00:00,50.0,3.01,52.0,3.27,12.57,47.59359,-54.27349
2023-05-12 10:04:00+00:00,48.0,3.62,49.0,4.04,12.57,47.59359,-54.27349
2023-05-12 10:14:00+00:00,46.0,4.26,45.0,4.46,13.6,47.59359,-54.27349
2023-05-12 10:24:00+00:00,44.0,3.77,41.0,4.24,13.6,47.59359,-54.27349
2023-05-12 10:34:00+00:00,37.0,3.3,37.0,3.67,13.6,47.59359,-54.27349
2023-05-12 10:44:00+00:00,37.0,3.43,39.0,3.71,13.6,47.59359,-54.27349
2023-05-12 10:54:00+00:00,42.0,3.78,39.0,4.06,13.6,47.59359,-54.27349
2023-05-12 11:04:00+00:00,35.0,3.23,39.0,3.68,13.6,47.59359,-54.27349
2023-05-12 11:14:00+00:00,40.0,3.62,43.0,3.91,13.6,47.59359,-54.27349
2023-05-12 11:24:00+00:00,31.0,3.29,38.0,3.83,13.6,47.59359,-54.27349
2023-05-12 11:34:00+00:00,35.0,3.07,38.0,3.57,13.6,47.59359,-54.27349
2023-05-12 11:44:00+00:00,50.0,2.59,50.0,3.05,13.6,47.59359,-54.27349
2023-05-12 11:54:00+00:00,39.0,2.53,42.0,2.8,13.6,47.59359,-54.27349
2023-05-12 12:04:00+00:00,41.0,2.23,36.0,2.64,13.6,47.59359,-54.27349
2023-05-12 12:14:01+00:00,33.0,2.28,36.0,2.68,14.16,47.59359,-54.27349
2023-05-12 12:24:01+00:00,23.0,2.77,21.0,3.04,14.16,47.59359,-54.27349
2023-05-12 12:34:01+00:00,22.0,2.76,23.0,3.0,14.16,47.59359,-54.27349
2023-05-12 12:44:01+00:00,20.0,3.22,15.0,3.5,14.16,47.59359,-54.27349
2023-05-12 12:54:01+00:00,23.0,2.88,28.0,3.12,14.16,47.59359,-54.27349
2023-05-12 13:04:01+00:00,28.0,1.68,24.0,2.03,14.16,47.59359,-54.27349
2023-05-12 13:14:00+00:00,16.0,1.93,20.0,2.23,14.4,47.59359,-54.27349
2023-05-12 13:24:00+00:00,4.0,2.45,6.0,2.61,14.4,47.59359,-54.27349
2023-05-12 13:34:00+00:00,357.0,2.04,359.0,2.3,14.4,47.59359,-54.27349
2023-05-12 13:44:00+00:00,352.0,2.28,353.0,2.46,14.4,47.59359,-54.27349
2023-05-12 13:54:00+00:00,349.0,1.56,349.0,1.8,14.4,47.59359,-54.27349
2023-05-12 14:04:00+00:00,356.0,1.59,356.0,1.66,14.4,47.59359,-54.27349
2023-05-12 14:14:01+00:00,359.0,0.65,1.0,0.73,14.32,47.59359,-54.27349
2023-05-12 14:24:01+00:00,303.0,0.14,243.0,0.4,14.32,47.59359,-54.27349
2023-05-12 14:34:01+00:00,194.0,0.65,174.0,0.82,14.32,47.59359,-54.27349
2023-05-12 14:44:01+00:00,144.0,1.18,150.0,1.38,14.32,47.59359,-54.27349
2023-05-12 14:54:01+00:00,176.0,0.95,178.0,1.0,14.32,47.59359,-54.27349
2023-05-12 15:04:01+00:00,178.0,0.82,180.0,0.87,14.32,47.59359,-54.27349
2023-05-12 15:14:01+00:00,271.0,3.29,269.0,3.67,13.6,47.59359,-54.27349
2023-05-12 15:24:01+00:00,257.0,1.57,260.0,1.66,13.6,47.59359,-54.27349
2023-05-12 15:34:01+00:00,218.0,0.91,220.0,0.98,13.6,47.59359,-54.27349
2023-05-12 15:44:01+00:00,238.0,1.41,245.0,1.62,13.6,47.59359,-54.27349
2023-05-12 15:54:01+00:00,199.0,1.48,202.0,1.63,13.6,47.59359,-54.27349
2023-05-12 16:04:01+00:00,225.0,1.25,225.0,1.38,13.6,47.59359,-54.27349
2023-05-12 16:14:01+00:00,247.0,3.25,249.0,3.58,14.4,47.59359,-54.27349
2023-05-12 16:24:01+00:00,253.0,3.53,255.0,4.09,14.4,47.59359,-54.27349
2023-05-12 16:34:01+00:00,241.0,3.58,238.0,4.08,14.4,47.59359,-54.27349
2023-05-12 16:44:01+00:00,240.0,4.07,240.0,4.44,14.4,47.59359,-54.27349
2023-05-12 16:54:01+00:00,242.0,3.63,247.0,4.12,14.4,47.59359,-54.27349
2023-05-12 17:04:01+00:00,208.0,4.76,211.0,5.47,14.4,47.59359,-54.27349
2023-05-12 17:14:01+00:00,214.0,5.1,221.0,5.9,14.4,47.59359,-54.27349
2023-05-12 17:24:01+00:00,214.0,4.3,215.0,4.67,14.4,47.59359,-54.27349
2023-05-12 17:34:01+00:00,211.0,6.08,214.0,6.72,14.4,47.59359,-54.27349
2023-05-12 17:44:01+00:00,217.0,6.33,219.0,6.95,14.4,47.59359,-54.27349
2023-05-12 17:54:01+00:00,215.0,5.99,216.0,6.59,14.4,47.59359,-54.27349
2023-05-12 18:04:01+00:00,210.0,6.33,211.0,6.62,14.4,47.59359,-54.27349
2023-05-12 18:14:00+00:00,211.0,6.85,213.0,7.21,13.92,47.59359,-54.27349
2023-05-12 18:24:00+00:00,205.0,6.27,207.0,7.03,13.92,47.59359,-54.27349
2023-05-12 18:34:00+00:00,209.0,6.82,209.0,7.22,13.92,47.59359,-54.27349
2023-05-12 18:44:00+00:00,210.0,7.29,209.0,8.09,13.92,47.59359,-54.27349
2023-05-12 18:54:00+00:00,211.0,7.52,215.0,8.15,13.92,47.59359,-54.27349
2023-05-12 19:04:00+00:00,212.0,7.84,213.0,8.47,13.92,47.59359,-54.27349
2023-05-12 19:14:00+00:00,211.0,8.57,212.0,9.56,13.68,47.59359,-54.27349
2023-05-12 19:24:00+00:00,214.0,7.99,214.0,8.96,13.68,47.59359,-54.27349
2023-05-12 19:34:00+00:00,218.0,7.84,222.0,8.91,13.68,47.59359,-54.27349
2023-05-12 19:44:00+00:00,217.0,7.91,210.0,10.41,13.68,47.59359,-54.27349
2023-05-12 19:54:00+00:00,221.0,8.33,218.0,9.14,13.68,47.59359,-54.27349
2023-05-12 20:04:00+00:00,217.0,7.77,221.0,8.97,13.68,47.59359,-54.27349
2023-05-12 20:14:00+00:00,222.0,6.92,226.0,7.95,13.68,47.59359,-54.27349
2023-05-12 20:24:00+00:00,225.0,6.96,225.0,8.01,13.68,47.59359,-54.27349
2023-05-12 20:34:00+00:00,228.0,7.73,229.0,8.21,13.68,47.59359,-54.27349
2023-05-12 20:44:00+00:00,221.0,6.51,221.0,7.26,13.68,47.59359,-54.27349
2023-05-12 20:54:00+00:00,215.0,5.99,209.0,7.38,13.68,47.59359,-54.27349
2023-05-12 21:04:00+00:00,214.0,6.96,215.0,7.47,13.68,47.59359,-54.27349
2023-05-12 21:14:00+00:00,217.0,7.39,216.0,7.79,13.6,47.59359,-54.27349
2023-05-12 21:24:00+00:00,217.0,7.43,217.0,7.95,13.6,47.59359,-54.27349
2023-05-12 21:34:00+00:00,214.0,6.94,214.0,7.56,13.6,47.59359,-54.27349
2023-05-12 21:44:00+00:00,218.0,6.48,216.0,7.1,13.6,47.59359,-54.27349
2023-05-12 21:54:00+00:00,222.0,4.71,219.0,5.42,13.6,47.59359,-54.27349
2023-05-12 22:04:00+00:00,211.0,3.53,212.0,3.95,13.6,47.59359,-54.27349
2023-05-12 22:14:00+00:00,230.0,5.84,238.0,7.17,13.37,47.59359,-54.27349
2023-05-12 22:24:00+00:00,222.0,5.66,219.0,6.33,13.37,47.59359,-54.27349
2023-05-12 22:34:00+00:00,201.0,5.71,203.0,6.56,13.37,47.59359,-54.27349
2023-05-12 22:44:00+00:00,201.0,6.38,205.0,7.19,13.37,47.59359,-54.27349
2023-05-12 22:54:00+00:00,196.0,5.39,201.0,6.11,13.37,47.59359,-54.27349
2023-05-12 23:04:00+00:00,190.0,5.19,191.0,5.65,13.37,47.59359,-54.27349
2023-05-12 23:14:00+00:00,187.0,5.44,186.0,5.92,12.89,47.59359,-54.27349
2023-05-12 23:24:00+00:00,183.0,5.07,186.0,5.79,12.89,47.59359,-54.27349
2023-05-12 23:34:00+00:00,182.0,4.89,184.0,5.56,12.89,47.59359,-54.27349
2023-05-12 23:44:00+00:00,186.0,5.18,189.0,5.91,12.89,47.59359,-54.27349
2023-05-12 23:54:00+00:00,191.0,4.81,189.0,5.14,12.89,47.59359,-54.27349
